SCP
0 0 0 0 0 0 0 0 0 0 0 0 0 0 0 0 0 0 0 0 0 0 0 0 0 0 0 0 0 0 0 0 0 0 0 0 0 0 0 0 0 0 0 0 0 0 0 0 0 0 0 0 0 0
0 0 0 0 0 0 0 0 0 0 0 0 0 0 0 0 0 0 0 0 0 0 0 0 0 0 0 0 0 0 0 0 0 0 0 0 0 0 0 0 0 0 0 0 0 0 0 0 0 0 0 0 0 0
0 0 0 0 0 0 0 0 0 0 0 0 0 0 0 0 0 0 0 0 0 0 0 0 0 0 0 0 0 0 0 0 0 0 0 0 0 0 0 0 0 0 0 0 0 0 0 0 0 0 0 0 0 0
0 0 0 0 0 0 0 0 0 0 0 0 0 0 0 0 0 0 0 0 0 0 0 0 0 0 0 0 0 0 0 0 0 0 0 0 0 0 0 0 0 0 0 0 0 0 0 0 0 0 0 0 0 0
0 0 0 0 0 0 0 0 0 0 0 0 0 0 0 0 0 0 0 0 0 0 0 0 0 0 0 0 0 0 0 0 0 0 0 0 0 0 0 0 0 0 0 0 0 0 0 0 0 0 0 0 0 0
0 0 0 0 0 0 0 0 0 0 0 0 0 0 0 0 0 0 0 0 0 0 0 0 0 0 0 0 0 0 0 0 0 0 0 0 0 0 0 0 0 0 0 0 0 0 0 0 0 0 0 0 0 0
0 0 0 0 0 0 0 0 0 0 0 0 0 0 0 0 0 0 0 0 0 0 0 0 0 0 0 0 0 0 0 0 0 0 0 0 0 0 0 0 0 0 0 0 0 0 0 0 0 0 0 0 0 0
0 0 0 0 0 0 0 0 0 0 0 0 0 0 0 0 0 0 0 0 0 0 0 0 0 0 0 0 0 0 0 0 0 0 0 0 0 0 0 0 0 0 0 0 0 0 0 0 0 0 0 0 0 0
0 0 0 0 0 0 0 0 0 0 0 0 0 0 0 0 0 0 0 0 0 0 0 0 0 0 0 0 0 0 0 0 0 0 0 0 0 0 0 0 0 0 0 0 0 0 0 0 0 0 0 0 0 0
0 0 0 0 0 0 0 0 0 0 0 0 0 0 0 0 0 0 0 0 0 0 0 0 0 0 0 0 0 0 0 0 0 0 0 0 0 0 0 0 0 0 0 0 0 0 0 0 0 0 0 0 0 0
0 0 0 0 0 0 0 0 0 0 0 0 0 0 0 0 0 0 0 0 0 0 0 0 0 0 0 0 0 0 0 0 0 0 0 0 0 0 0 0 0 0 0 0 0 0 0 0 0 0 0 0 0 0
0 0 0 0 0 0 0 0 0 0 0 0 0 0 0 0 0 0 0 0 0 0 0 0 0 0 0 0 0 0 0 0 0 0 0 0 0 0 0 0 0 0 0 0 0 0 0 0 0 0 0 0 0 0
0 0 0 0 0 0 0 0 0 0 0 0 0 0 0 0 0 0 0 0 0 0 0 0 0 0 0 0 0 0 0 0 0 0 0 0 0 0 0 0 0 0 0 0 0 0 0 0 0 0 0 0 0 0
0 0 0 0 0 0 0 0 0 0 0 0 0 0 0 0 0 0 0 0 0 0 0 0 0 0 0 0 0 0 0 0 0 0 0 0 0 0 0 0 0 0 0 0 0 0 0 0 0 0 0 0 0 0
0 0 0 0 0 0 0 0 0 0 0 0 0 0 0 0 0 0 0 0 0 0 0 0 0 0 0 0 0 0 0 0 0 0 0 0 0 0 0 0 0 0 0 0 0 0 0 0 0 0 0 0 0 0
0 0 0 0 0 0 0 0 0 0 0 0 0 0 0 0 0 0 0 0 0 0 0 0 0 0 0 0 0 0 0 0 0 0 0 0 0 0 0 0 0 0 0 0 0 0 0 0 0 0 0 0 0 0
0 0 0 0 0 0 0 0 0 0 0 0 0 0 0 0 0 0 0 0 0 0 0 0 0 0 0 0 0 0 0 0 0 0 0 0 0 0 0 0 0 0 0 0 0 0 0 0 0 0 0 0 0 0
0 0 0 0 0 0 0 0 0 0 0 0 0 0 0 0 -0 -0 0 0 0 0 0 0 0 0 0 0 0 0 0 0 0 0 0 0 0 0 0 0 0 0 0 0 0 0 0 0 0 0 0 0 0 0
0 0 0 0 0 0 0 0 0 0 0 0 0 0 0 0 0 0 0 0 0 0 0 0 0 0 0 0 0 0 0 0 0 0 0 0 0 0 0 0 0 0 0 0 0 0 0 0 0 0 0 0 0 0
0 0 0 0 0 0 0 0 0 0 0 0 0 0 0 0 0 0 0 0 0 0 0 0 0 0 0 0 0 0 0 0 0 0 0 0 0 0 0 0 0 0 0 0 0 0 0 0 0 0 0 0 0 0
0 0 0 0 0 0 0 0 0 0 0 0 0 0 0 0 0 0 0 0 0 0 0 0 0 0 0 0 0 0 0 0 0 0 0 0 0 0 0 0 0 0 0 0 0 0 0 0 0 0 0 0 0 0
0 0 0 0 0 0 0 0 0 0 0 0 0 0 0 0 0 0 0 0 0 0 0 0 0 0 0 0 0 0 0 0 0 0 0 0 0 0 0 0 0 0 0 0 0 0 0 0 0 0 0 0 0 0
0 0 0 0 0 0 0 0 0 0 0 0 0 0 0 0 0 0 0 0 0 0 0 0 0 0 0 0 0 0 0 0 0 0 0 0 0 0 0 0 0 0 0 0 0 0 0 0 0 0 0 0 -0 -0
-0 0 0 0 0 0 0 0 0 0 0 0 0 0 0 0 0 0 0 0 0 0 0 0 0 0 0 0 0 0 0 0 0 0 0 0 0 0 0 0 0 0 0 0 0 0 0 0 0 0 -0 -0 -0 0
0 -0 0 0 0 0 0 0 0 0 0 0 0 0 0 0 0 0 0 0 0 0 0 0 0 0 0 0 0 0 0 0 0 0 0 0 0 0 0 0 0 0 0 0 0 0 0 0 0 -0 -0 -0 -0 0
-0 0 0 0 0 0 0 0 0 0 0 0 0 0 0 0 0 0 0 0 0 0 0 0 0 0 0 0 0 0 0 0 0 0 0 0 0 0 0 0 0 0 0 0 0 0 0 0 0 -0 -0 -0 0 0
-0 0 0 0 0 0 0 0 0 0 0 0 0 0 0 0 0 0 0 0 0 0 0 0 0 0 0 0 0 0 0 0 0 0 0 0 0 0 0 0 0 0 0 0 0 0 0 0 0 -0 0 0 0 0
0 0 0 0 0 0 0 0 0 0 0 0 0 0 0 0 0 0 0 0 0 0 0 0 0 0 0 0 0 0 0 0 0 0 0 0 0 0 0 0 0 0 0 0 0 0 0 0 0 0 0 0 0 0
0 0 0 0 0 0 0 0 0 0 0 0 0 0 0 0 0 0 0 0 0 0 0 0 0 0 0 0 0 0 0 0 0 0 0 0 0 0 0 0 0 0 0 0 0 0 0 0 0 0 0 0 0 0
0 0 0 0 0 0 0 0 0 0 0 0 0 0 0 0 0 0 0 0 0 0 0 0 0 0 0 0 0 0 0 0 0 0 0 0 0 0 0 0 0 0 0 0 0 0 0 0 0 0 0 0 0 0
0 0 0 0 0 0 0 0 0 0 0 0 0 0 0 0 0 0 0 0 0 0 0 0 0 0 0 0 0 0 0 0 0 0 0 0 0 0 0 0 0 0 0 0 0 0 0 0 0 0 0 0 0 0
0 0 0 0 0 0 0 0 0 0 0 0 0 0 0 0 0 0 0 0 0 0 0 0 0 0 0 0 0 0 0 0 0 0 0 0 0 0 0 0 0 0 0 0 0 0 0 0 0 0 0 0 0 0
0 0 0 0 0 0 0 0 0 0 0 0 0 0 0 0 0 0 0 0 0 0 0 0 0 0 0 0 0 0 0 0 0 0 0 0 0 0 0 0 0 0 0 0 0 0 0 0 0 0 0 0 0 0
Wind_Speed_500mb
42 51 46 50 52 52 43 46 45 48 50 44 44 43 39 40 47 47 54 42 42 16 18 22 32 23 23 28 8 20 12 4 4 6 8 8 6 11 3 8 9 12 11 9 3 4 14 4 11 12 9 3 15 24
61 45 40 37 45 48 45 48 53 47 47 44 49 49 46 49 50 45 49 43 47 32 15 23 50 42 34 35 37 46 8 15 22 6 5 4 3 3 9 7 8 5 15 8 13 11 9 16 21 25 25 36 45 49
51 61 57 56 50 38 38 44 43 45 52 49 47 52 54 53 57 56 55 47 39 38 36 51 57 57 56 50 38 28 28 19 17 20 11 6 9 7 8 11 8 10 34 10 11 18 34 68 65 68 71 65 61 54
51 48 52 50 46 56 51 41 39 41 45 49 52 53 54 54 58 56 61 60 59 22 11 33 45 47 54 66 63 54 43 26 32 27 11 8 9 20 11 17 15 26 7 19 22 25 52 57 64 68 68 74 72 65
54 53 52 50 46 45 44 43 45 51 48 44 47 47 51 52 52 52 52 67 63 58 4 8 26 44 43 46 56 74 69 58 35 17 10 10 13 15 12 7 17 50 44 23 21 48 42 46 61 61 54 55 52 51
52 49 47 46 46 47 45 44 44 43 47 46 49 50 48 50 47 42 31 72 75 74 17 7 20 24 42 46 49 52 63 62 50 26 16 25 48 22 9 17 42 57 53 60 53 65 64 68 72 73 63 51 58 62
49 47 46 46 46 46 45 42 43 45 48 47 48 48 45 46 47 54 15 22 46 82 22 7 6 27 44 48 56 51 49 40 38 34 22 35 25 19 10 23 44 53 58 64 72 61 53 60 47 50 51 50 50 50
43 42 41 43 44 42 41 42 42 43 43 48 45 43 44 46 50 60 65 52 26 52 16 4 5 9 39 24 21 37 28 37 33 25 14 19 15 17 13 29 51 56 64 71 71 63 63 61 55 50 50 51 48 43
43 41 36 33 32 34 35 37 35 36 37 37 37 35 37 48 53 57 48 58 61 41 8 8 11 8 32 15 15 26 25 8 17 9 13 14 9 13 16 39 54 67 59 62 54 48 46 43 40 39 39 39 38 38
36 31 31 32 36 42 44 43 40 34 30 28 29 22 16 32 47 31 29 28 47 39 32 7 27 9 36 24 15 15 13 6 7 13 14 10 21 64 64 76 71 53 48 49 39 45 45 38 35 37 39 35 32 32
31 31 29 29 32 34 35 41 39 30 23 25 16 19 14 14 42 26 21 18 17 8 16 24 46 10 22 8 8 23 7 6 7 9 15 8 8 27 66 68 67 66 63 55 47 42 41 37 34 32 32 31 30 30
29 30 32 33 36 35 31 29 28 32 29 21 9 11 25 23 17 10 13 8 9 12 18 9 20 33 21 16 6 13 8 10 11 7 6 7 9 46 44 45 47 46 45 38 34 33 31 29 27 28 28 29 29 31
30 33 34 35 36 37 36 32 32 33 31 33 17 11 12 14 17 15 18 6 6 7 18 22 8 23 16 21 7 9 13 12 15 8 9 9 21 32 36 36 38 37 32 29 25 24 24 24 24 25 26 28 30 32
27 27 30 32 33 35 38 40 36 34 28 19 15 13 14 10 8 7 10 9 15 20 46 38 13 8 15 11 7 9 6 7 9 8 13 8 36 32 35 37 36 31 27 24 22 22 22 22 21 22 25 28 33 35
23 30 32 33 35 39 40 44 45 44 27 16 13 12 14 10 5 6 7 15 18 26 43 19 6 12 5 7 7 7 10 9 12 11 9 18 28 30 34 35 34 30 28 26 23 22 19 18 19 21 27 30 35 36
14 19 27 27 36 40 41 42 41 49 18 19 15 4 4 3 3 6 9 9 18 34 27 12 6 6 9 6 12 12 14 14 9 7 11 20 23 27 29 30 28 26 25 22 19 17 16 16 19 22 24 29 30 33
10 7 16 16 18 23 34 43 35 21 16 17 5 9 8 7 8 5 7 8 30 31 6 5 13 14 3 6 9 8 10 7 8 17 15 16 20 25 27 26 25 23 22 19 15 12 12 16 20 22 22 24 25 25
12 8 8 11 16 14 25 33 15 8 5 6 5 7 9 10 10 10 16 16 19 9 13 6 9 8 8 11 5 4 9 15 15 14 12 14 19 22 22 20 20 17 14 11 9 10 12 13 15 17 18 19 18 16
13 5 6 11 10 1 2 5 5 5 6 6 12 10 7 4 6 8 9 18 19 10 2 3 6 6 5 5 5 11 8 7 12 16 19 20 20 21 21 18 14 12 10 8 7 8 8 8 9 11 13 14 14 14
15 20 12 10 10 7 6 7 5 7 4 5 9 9 7 3 5 7 6 12 14 4 5 4 4 5 6 4 5 6 5 6 14 22 21 23 22 19 17 15 13 11 9 6 4 2 1 3 6 9 11 12 12 13
25 21 10 13 9 7 9 7 10 8 6 7 7 6 3 5 7 5 5 9 3 5 4 7 6 6 6 7 7 12 15 16 15 9 13 22 21 19 15 13 10 8 7 6 4 2 2 6 7 9 10 11 12 12
18 14 10 11 7 8 11 11 9 7 6 6 6 6 7 4 8 8 6 5 8 4 3 2 4 6 8 9 9 11 12 10 8 7 8 7 16 17 14 10 10 9 8 5 3 5 8 9 10 11 11 11 12 13
22 14 8 8 8 10 6 8 5 6 6 2 4 5 5 4 8 6 3 7 6 7 3 1 5 6 6 8 8 8 6 5 5 6 7 8 11 12 12 13 10 6 4 4 7 9 10 10 10 9 8 9 11 13
15 9 11 11 14 4 4 7 6 6 5 4 4 5 4 4 9 2 3 6 10 9 4 5 7 8 7 7 6 9 9 9 11 14 16 15 16 16 13 8 4 3 6 8 8 9 8 7 6 7 9 12 14 16
7 19 13 11 14 7 7 5 6 4 6 5 3 4 4 8 3 5 3 5 15 10 5 5 7 6 6 8 10 13 16 19 20 20 18 14 12 9 5 1 2 5 8 9 9 7 6 7 9 11 14 16 17 18
15 18 11 7 9 7 6 3 7 5 4 4 5 3 6 3 5 2 3 16 12 11 7 8 9 9 11 15 18 21 20 18 16 14 11 6 2 2 4 6 6 6 8 9 9 9 10 12 14 17 18 19 21 24
11 9 14 15 7 3 6 5 3 3 8 7 5 5 5 6 3 5 12 19 14 12 5 10 14 15 19 19 18 16 13 10 9 8 7 5 4 4 6 8 9 10 9 11 10 12 14 17 20 22 25 24 26 29
9 18 5 18 9 10 5 4 6 5 3 8 4 7 5 3 2 13 13 20 19 9 6 12 13 15 16 14 11 10 8 8 8 8 9 9 7 5 4 4 5 7 8 11 13 16 19 22 26 29 32 35 34 33
10 22 11 8 6 10 9 4 1 3 6 4 3 3 2 6 17 18 17 16 11 7 7 9 9 8 7 7 7 7 7 7 7 10 9 7 5 5 4 5 8 11 15 17 19 23 27 31 34 39 43 46 48 49
15 26 11 9 5 7 5 6 3 6 3 3 3 5 11 16 33 39 26 12 8 6 7 7 6 3 3 5 5 4 4 4 6 8 9 9 10 9 11 14 17 21 25 29 32 33 35 40 43 46 52 57 60 61
18 18 7 5 3 5 10 11 5 6 5 6 8 7 7 7 16 45 52 31 10 6 5 4 4 2 1 1 2 3 5 6 6 7 9 11 15 19 23 26 30 34 38 42 46 50 53 55 57 59 60 59 58 57
16 13 8 8 6 11 10 16 6 4 5 5 7 6 5 8 10 29 51 41 23 11 9 8 6 7 6 3 4 2 2 4 6 16 25 31 36 40 44 46 47 48 49 51 53 55 56 59 60 60 60 60 58 57
10 12 7 8 5 6 16 18 2 4 7 6 9 9 10 9 10 34 34 44 45 41 34 33 34 36 29 18 10 6 11 22 30 39 47 52 56 58 59 58 56 57 59 61 61 59 59 59 60 60 60 60 59 58
Wind_Direction_500mb
243 240 238 231 234 226 225 231 237 227 230 228 228 237 248 235 223 213 225 220 214 208 229 206 207 182 170 185 140 143 103 208 157 185 167 206 188 211 195 218 181 157 169 217 163 219 279 162 132 173 233 104 198 204
242 248 243 239 239 239 235 234 230 229 237 237 230 226 236 240 239 231 238 242 219 222 235 219 225 222 221 214 197 168 165 152 171 157 199 178 182 212 169 229 160 245 205 197 178 203 228 216 233 240 268 282 280 271
239 236 241 243 239 241 238 239 240 238 230 235 240 239 239 232 229 231 236 236 227 228 247 250 235 233 225 215 206 186 214 198 198 191 189 185 229 149 180 229 249 246 232 226 245 248 258 265 269 270 275 281 284 279
229 226 229 233 234 234 237 242 243 244 244 239 234 238 242 241 233 231 230 230 227 228 224 255 248 233 232 226 220 216 223 205 223 219 224 205 219 212 221 234 214 225 160 230 250 252 259 266 268 271 273 273 277 280
239 238 234 232 233 236 240 241 243 244 249 250 248 245 241 238 235 239 239 236 236 203 221 225 244 234 236 222 219 222 223 224 220 200 216 222 233 245 239 233 233 233 236 239 249 251 253 265 277 280 272 273 281 282
239 239 239 238 236 235 238 240 243 246 247 245 247 250 244 240 243 244 239 241 238 230 232 207 214 201 218 213 216 220 224 224 219 221 227 240 240 219 226 244 243 239 239 247 254 260 262 272 280 279 275 274 284 286
235 237 240 238 236 236 236 243 247 250 248 247 246 245 248 239 235 225 225 242 227 218 211 208 170 211 212 206 214 218 220 213 214 225 228 239 231 218 235 239 240 255 257 256 256 260 269 274 270 272 273 274 276 271
226 234 236 239 241 246 247 248 254 255 251 247 248 248 247 239 236 239 238 247 225 198 218 238 151 162 182 179 186 198 202 211 212 219 225 226 233 220 249 251 256 259 259 261 262 263 266 269 269 271 273 274 271 264
228 226 232 232 237 243 245 245 244 248 247 247 245 247 245 234 231 235 237 238 243 221 213 180 161 204 175 169 167 175 189 188 211 211 224 197 222 225 227 248 250 251 246 252 260 261 263 265 270 270 268 265 263 263
218 209 225 236 246 243 238 245 246 247 242 238 233 224 226 224 224 220 213 210 199 204 205 186 182 186 168 164 175 147 187 204 200 224 179 202 237 242 249 251 256 258 256 257 250 261 266 267 266 267 268 268 261 258
203 216 232 248 248 238 234 230 232 230 224 216 216 215 219 176 183 193 206 196 179 197 194 191 194 147 178 145 170 195 170 193 200 243 171 220 241 233 245 249 256 260 261 260 262 264 270 273 273 265 261 257 256 259
223 235 247 245 238 231 223 215 214 214 215 210 209 221 189 200 204 231 182 189 206 200 181 169 179 191 166 162 159 176 191 187 217 143 134 241 218 245 249 240 235 242 249 255 261 262 260 257 256 253 250 251 255 259
240 240 240 237 232 225 220 218 223 224 224 230 221 218 232 188 212 199 176 200 182 158 158 155 150 152 150 182 178 173 210 206 117 171 220 220 222 231 225 232 236 240 243 247 250 252 251 247 243 242 247 254 263 272
254 248 244 240 233 229 228 221 217 217 208 217 183 204 218 205 233 181 185 176 176 172 174 174 132 155 167 181 179 204 146 123 192 203 224 223 228 240 237 234 228 222 225 228 232 234 233 238 248 259 267 274 281 288
257 251 246 239 235 235 230 230 222 218 215 197 233 217 202 168 138 143 146 138 160 184 151 146 136 159 158 209 182 109 176 211 205 214 213 215 211 220 223 225 221 219 213 213 219 220 230 246 263 278 289 294 295 295
304 243 232 235 238 237 235 227 222 219 215 195 226 250 342 41 86 147 173 171 173 161 146 126 149 195 213 197 172 200 170 211 226 210 160 175 193 206 213 212 206 206 208 204 204 219 242 266 284 292 295 298 304 307
336 235 238 246 247 240 225 217 215 222 222 167 161 181 119 112 111 104 124 161 164 160 175 157 190 197 121 210 195 177 205 210 137 135 154 184 197 192 194 197 199 198 196 201 217 238 266 285 296 304 312 311 315 317
312 311 288 249 224 238 215 193 210 209 163 113 157 145 161 155 137 161 174 181 179 227 164 204 138 201 200 179 222 231 104 123 120 139 164 177 180 177 176 178 183 192 209 219 234 265 286 301 309 314 322 325 323 315
298 281 195 223 216 233 81 84 128 105 39 89 107 121 131 143 155 166 186 190 192 192 266 227 220 195 193 38 22 50 82 134 161 153 157 162 168 170 170 173 190 206 215 236 265 284 293 301 316 325 326 328 327 324
249 238 244 227 196 181 108 57 80 92 94 107 107 114 130 151 103 108 142 169 156 168 220 222 28 34 36 70 68 86 77 134 152 140 150 162 169 174 176 186 200 212 221 229 228 223 268 312 332 337 334 330 332 332
209 231 243 180 149 96 86 71 61 82 96 97 101 78 43 78 86 71 68 113 114 50 63 51 66 76 84 85 108 125 132 141 148 158 171 180 184 191 191 191 195 207 206 189 175 173 303 319 322 324 326 329 333 333
184 177 145 150 94 79 79 60 91 82 74 77 65 70 39 26 30 16 12 52 58 44 44 71 116 129 128 120 118 126 134 142 149 131 136 151 181 186 183 181 178 171 164 169 227 276 285 291 302 308 312 320 325 330
135 135 88 73 87 57 42 63 73 51 87 295 90 74 15 37 6 15 78 58 49 12 352 60 147 152 141 137 129 129 125 116 110 97 94 118 140 138 137 142 148 160 190 242 268 280 285 291 297 304 315 325 331 335
98 65 43 48 41 65 55 41 55 79 82 36 60 82 33 351 356 19 58 39 5 5 42 118 135 118 119 118 113 120 124 119 116 120 120 124 122 119 122 130 159 236 269 274 281 283 279 281 290 304 314 321 326 332
86 13 22 20 23 22 44 29 9 53 59 352 25 91 18 355 59 48 49 354 359 4 29 108 112 94 111 120 122 125 124 114 119 121 121 123 113 107 105 76 314 300 291 282 271 269 267 283 298 307 315 322 327 330
68 9 42 341 0 60 342 50 33 28 358 83 46 352 356 25 62 9 324 345 355 8 52 79 72 83 102 113 118 120 114 114 106 99 91 87 72 346 311 310 303 304 303 295 269 263 275 291 302 309 316 318 320 321
57 344 9 28 19 358 39 32 8 358 42 34 8 360 23 67 30 282 355 8 6 10 79 110 106 101 105 106 105 103 98 91 76 71 63 52 26 337 316 307 304 299 292 283 269 268 280 292 301 307 309 311 313 314
76 27 47 339 16 34 111 37 47 51 352 352 332 35 90 83 251 345 354 1 4 24 109 133 124 124 125 116 106 97 93 96 82 62 63 62 48 31 10 338 303 298 294 291 292 293 297 300 304 306 307 307 310 310
36 357 352 352 28 53 45 67 133 26 359 11 90 53 18 55 6 357 352 2 22 63 118 141 122 117 125 121 107 102 95 82 55 45 43 49 41 36 31 359 332 316 306 301 298 300 301 301 303 303 303 304 305 304
2 358 353 2 36 38 359 15 336 334 2 28 68 86 80 77 49 37 26 20 30 66 106 129 145 137 116 98 67 56 53 41 27 29 38 31 6 347 327 317 312 308 305 304 303 300 297 296 295 294 295 296 297 298
350 354 356 11 71 18 356 354 24 63 82 69 75 101 114 118 59 31 24 22 28 59 89 111 93 90 14 74 61 44 66 65 39 43 26 358 341 330 321 314 309 305 303 300 299 298 297 297 297 297 298 300 301 300
348 6 351 356 354 7 17 12 26 58 63 66 48 64 77 78 64 18 11 19 31 55 64 62 53 34 15 331 307 336 93 99 360 335 327 322 321 321 320 316 312 308 303 299 296 295 294 294 295 296 298 299 300 301
337 353 352 328 331 18 357 353 27 78 60 60 43 49 54 68 80 17 21 43 53 59 63 67 64 52 42 40 55 24 317 311 307 310 312 312 312 312 311 310 307 304 302 300 297 296 294 293 293 293 294 294 296 296
Wind_Speed_850mb
42 51 46 50 52 52 43 46 45 48 50 44 44 43 39 40 47 47 54 42 42 16 18 22 32 23 23 28 8 20 12 4 4 6 8 8 6 11 3 8 9 12 11 9 3 4 14 4 11 12 9 3 15 24
61 45 40 37 45 48 45 48 53 47 47 44 49 49 46 49 50 45 49 43 47 32 15 23 50 42 34 35 37 46 8 15 22 6 5 4 3 3 9 7 8 5 15 8 13 11 9 16 21 25 25 36 45 49
51 61 57 56 50 38 38 44 43 45 52 49 47 52 54 53 57 56 55 47 39 38 36 51 57 57 56 50 38 28 28 19 17 20 11 6 9 7 8 11 8 10 34 10 11 18 34 68 65 68 71 65 61 54
51 48 52 50 46 56 51 41 39 41 45 49 52 53 54 54 58 56 61 60 59 22 11 33 45 47 54 66 63 54 43 26 32 27 11 8 9 20 11 17 15 26 7 19 22 25 52 57 64 68 68 74 72 65
54 53 52 50 46 45 44 43 45 51 48 44 47 47 51 52 52 52 52 67 63 58 4 8 26 44 43 46 56 74 69 58 35 17 10 10 13 15 12 7 17 50 44 23 21 48 42 46 61 61 54 55 52 51
52 49 47 46 46 47 45 44 44 43 47 46 49 50 48 50 47 42 31 72 75 74 17 7 20 24 42 46 49 52 63 62 50 26 16 25 48 22 9 17 42 57 53 60 53 65 64 68 72 73 63 51 58 62
49 47 46 46 46 46 45 42 43 45 48 47 48 48 45 46 47 54 15 22 46 82 22 7 6 27 44 48 56 51 49 40 38 34 22 35 25 19 10 23 44 53 58 64 72 61 53 60 47 50 51 50 50 50
43 42 41 43 44 42 41 42 42 43 43 48 45 43 44 46 50 60 65 52 26 52 16 4 5 9 39 24 21 37 28 37 33 25 14 19 15 17 13 29 51 56 64 71 71 63 63 61 55 50 50 51 48 43
43 41 36 33 32 34 35 37 35 36 37 37 37 35 37 48 53 57 48 58 61 41 8 8 11 8 32 15 15 26 25 8 17 9 13 14 9 13 16 39 54 67 59 62 54 48 46 43 40 39 39 39 38 38
36 31 31 32 36 42 44 43 40 34 30 28 29 22 16 32 47 31 29 28 47 39 32 7 27 9 36 24 15 15 13 6 7 13 14 10 21 64 64 76 71 53 48 49 39 45 45 38 35 37 39 35 32 32
31 31 29 29 32 34 35 41 39 30 23 25 16 19 14 14 42 26 21 18 17 8 16 24 46 10 22 8 8 23 7 6 7 9 15 8 8 27 66 68 67 66 63 55 47 42 41 37 34 32 32 31 30 30
29 30 32 33 36 35 31 29 28 32 29 21 9 11 25 23 17 10 13 8 9 12 18 9 20 33 21 16 6 13 8 10 11 7 6 7 9 46 44 45 47 46 45 38 34 33 31 29 27 28 28 29 29 31
30 33 34 35 36 37 36 32 32 33 31 33 17 11 12 14 17 15 18 6 6 7 18 22 8 23 16 21 7 9 13 12 15 8 9 9 21 32 36 36 38 37 32 29 25 24 24 24 24 25 26 28 30 32
27 27 30 32 33 35 38 40 36 34 28 19 15 13 14 10 8 7 10 9 15 20 46 38 13 8 15 11 7 9 6 7 9 8 13 8 36 32 35 37 36 31 27 24 22 22 22 22 21 22 25 28 33 35
23 30 32 33 35 39 40 44 45 44 27 16 13 12 14 10 5 6 7 15 18 26 43 19 6 12 5 7 7 7 10 9 12 11 9 18 28 30 34 35 34 30 28 26 23 22 19 18 19 21 27 30 35 36
14 19 27 27 36 40 41 42 41 49 18 19 15 4 4 3 3 6 9 9 18 34 27 12 6 6 9 6 12 12 14 14 9 7 11 20 23 27 29 30 28 26 25 22 19 17 16 16 19 22 24 29 30 33
10 7 16 16 18 23 34 43 35 21 16 17 5 9 8 7 8 5 7 8 30 31 6 5 13 14 3 6 9 8 10 7 8 17 15 16 20 25 27 26 25 23 22 19 15 12 12 16 20 22 22 24 25 25
12 8 8 11 16 14 25 33 15 8 5 6 5 7 9 10 10 10 16 16 19 9 13 6 9 8 8 11 5 4 9 15 15 14 12 14 19 22 22 20 20 17 14 11 9 10 12 13 15 17 18 19 18 16
13 5 6 11 10 1 2 5 5 5 6 6 12 10 7 4 6 8 9 18 19 10 2 3 6 6 5 5 5 11 8 7 12 16 19 20 20 21 21 18 14 12 10 8 7 8 8 8 9 11 13 14 14 14
15 20 12 10 10 7 6 7 5 7 4 5 9 9 7 3 5 7 6 12 14 4 5 4 4 5 6 4 5 6 5 6 14 22 21 23 22 19 17 15 13 11 9 6 4 2 1 3 6 9 11 12 12 13
25 21 10 13 9 7 9 7 10 8 6 7 7 6 3 5 7 5 5 9 3 5 4 7 6 6 6 7 7 12 15 16 15 9 13 22 21 19 15 13 10 8 7 6 4 2 2 6 7 9 10 11 12 12
18 14 10 11 7 8 11 11 9 7 6 6 6 6 7 4 8 8 6 5 8 4 3 2 4 6 8 9 9 11 12 10 8 7 8 7 16 17 14 10 10 9 8 5 3 5 8 9 10 11 11 11 12 13
22 14 8 8 8 10 6 8 5 6 6 2 4 5 5 4 8 6 3 7 6 7 3 1 5 6 6 8 8 8 6 5 5 6 7 8 11 12 12 13 10 6 4 4 7 9 10 10 10 9 8 9 11 13
15 9 11 11 14 4 4 7 6 6 5 4 4 5 4 4 9 2 3 6 10 9 4 5 7 8 7 7 6 9 9 9 11 14 16 15 16 16 13 8 4 3 6 8 8 9 8 7 6 7 9 12 14 16
7 19 13 11 14 7 7 5 6 4 6 5 3 4 4 8 3 5 3 5 15 10 5 5 7 6 6 8 10 13 16 19 20 20 18 14 12 9 5 1 2 5 8 9 9 7 6 7 9 11 14 16 17 18
15 18 11 7 9 7 6 3 7 5 4 4 5 3 6 3 5 2 3 16 12 11 7 8 9 9 11 15 18 21 20 18 16 14 11 6 2 2 4 6 6 6 8 9 9 9 10 12 14 17 18 19 21 24
11 9 14 15 7 3 6 5 3 3 8 7 5 5 5 6 3 5 12 19 14 12 5 10 14 15 19 19 18 16 13 10 9 8 7 5 4 4 6 8 9 10 9 11 10 12 14 17 20 22 25 24 26 29
9 18 5 18 9 10 5 4 6 5 3 8 4 7 5 3 2 13 13 20 19 9 6 12 13 15 16 14 11 10 8 8 8 8 9 9 7 5 4 4 5 7 8 11 13 16 19 22 26 29 32 35 34 33
10 22 11 8 6 10 9 4 1 3 6 4 3 3 2 6 17 18 17 16 11 7 7 9 9 8 7 7 7 7 7 7 7 10 9 7 5 5 4 5 8 11 15 17 19 23 27 31 34 39 43 46 48 49
15 26 11 9 5 7 5 6 3 6 3 3 3 5 11 16 33 39 26 12 8 6 7 7 6 3 3 5 5 4 4 4 6 8 9 9 10 9 11 14 17 21 25 29 32 33 35 40 43 46 52 57 60 61
18 18 7 5 3 5 10 11 5 6 5 6 8 7 7 7 16 45 52 31 10 6 5 4 4 2 1 1 2 3 5 6 6 7 9 11 15 19 23 26 30 34 38 42 46 50 53 55 57 59 60 59 58 57
16 13 8 8 6 11 10 16 6 4 5 5 7 6 5 8 10 29 51 41 23 11 9 8 6 7 6 3 4 2 2 4 6 16 25 31 36 40 44 46 47 48 49 51 53 55 56 59 60 60 60 60 58 57
10 12 7 8 5 6 16 18 2 4 7 6 9 9 10 9 10 34 34 44 45 41 34 33 34 36 29 18 10 6 11 22 30 39 47 52 56 58 59 58 56 57 59 61 61 59 59 59 60 60 60 60 59 58
Wind_Direction_850mb
243 240 238 231 234 226 225 231 237 227 230 228 228 237 248 235 223 213 225 220 214 208 229 206 207 182 170 185 140 143 103 208 157 185 167 206 188 211 195 218 181 157 169 217 163 219 279 162 132 173 233 104 198 204
242 248 243 239 239 239 235 234 230 229 237 237 230 226 236 240 239 231 238 242 219 222 235 219 225 222 221 214 197 168 165 152 171 157 199 178 182 212 169 229 160 245 205 197 178 203 228 216 233 240 268 282 280 271
239 236 241 243 239 241 238 239 240 238 230 235 240 239 239 232 229 231 236 236 227 228 247 250 235 233 225 215 206 186 214 198 198 191 189 185 229 149 180 229 249 246 232 226 245 248 258 265 269 270 275 281 284 279
229 226 229 233 234 234 237 242 243 244 244 239 234 238 242 241 233 231 230 230 227 228 224 255 248 233 232 226 220 216 223 205 223 219 224 205 219 212 221 234 214 225 160 230 250 252 259 266 268 271 273 273 277 280
239 238 234 232 233 236 240 241 243 244 249 250 248 245 241 238 235 239 239 236 236 203 221 225 244 234 236 222 219 222 223 224 220 200 216 222 233 245 239 233 233 233 236 239 249 251 253 265 277 280 272 273 281 282
239 239 239 238 236 235 238 240 243 246 247 245 247 250 244 240 243 244 239 241 238 230 232 207 214 201 218 213 216 220 224 224 219 221 227 240 240 219 226 244 243 239 239 247 254 260 262 272 280 279 275 274 284 286
235 237 240 238 236 236 236 243 247 250 248 247 246 245 248 239 235 225 225 242 227 218 211 208 170 211 212 206 214 218 220 213 214 225 228 239 231 218 235 239 240 255 257 256 256 260 269 274 270 272 273 274 276 271
226 234 236 239 241 246 247 248 254 255 251 247 248 248 247 239 236 239 238 247 225 198 218 238 151 162 182 179 186 198 202 211 212 219 225 226 233 220 249 251 256 259 259 261 262 263 266 269 269 271 273 274 271 264
228 226 232 232 237 243 245 245 244 248 247 247 245 247 245 234 231 235 237 238 243 221 213 180 161 204 175 169 167 175 189 188 211 211 224 197 222 225 227 248 250 251 246 252 260 261 263 265 270 270 268 265 263 263
218 209 225 236 246 243 238 245 246 247 242 238 233 224 226 224 224 220 213 210 199 204 205 186 182 186 168 164 175 147 187 204 200 224 179 202 237 242 249 251 256 258 256 257 250 261 266 267 266 267 268 268 261 258
203 216 232 248 248 238 234 230 232 230 224 216 216 215 219 176 183 193 206 196 179 197 194 191 194 147 178 145 170 195 170 193 200 243 171 220 241 233 245 249 256 260 261 260 262 264 270 273 273 265 261 257 256 259
223 235 247 245 238 231 223 215 214 214 215 210 209 221 189 200 204 231 182 189 206 200 181 169 179 191 166 162 159 176 191 187 217 143 134 241 218 245 249 240 235 242 249 255 261 262 260 257 256 253 250 251 255 259
240 240 240 237 232 225 220 218 223 224 224 230 221 218 232 188 212 199 176 200 182 158 158 155 150 152 150 182 178 173 210 206 117 171 220 220 222 231 225 232 236 240 243 247 250 252 251 247 243 242 247 254 263 272
254 248 244 240 233 229 228 221 217 217 208 217 183 204 218 205 233 181 185 176 176 172 174 174 132 155 167 181 179 204 146 123 192 203 224 223 228 240 237 234 228 222 225 228 232 234 233 238 248 259 267 274 281 288
257 251 246 239 235 235 230 230 222 218 215 197 233 217 202 168 138 143 146 138 160 184 151 146 136 159 158 209 182 109 176 211 205 214 213 215 211 220 223 225 221 219 213 213 219 220 230 246 263 278 289 294 295 295
304 243 232 235 238 237 235 227 222 219 215 195 226 250 342 41 86 147 173 171 173 161 146 126 149 195 213 197 172 200 170 211 226 210 160 175 193 206 213 212 206 206 208 204 204 219 242 266 284 292 295 298 304 307
336 235 238 246 247 240 225 217 215 222 222 167 161 181 119 112 111 104 124 161 164 160 175 157 190 197 121 210 195 177 205 210 137 135 154 184 197 192 194 197 199 198 196 201 217 238 266 285 296 304 312 311 315 317
312 311 288 249 224 238 215 193 210 209 163 113 157 145 161 155 137 161 174 181 179 227 164 204 138 201 200 179 222 231 104 123 120 139 164 177 180 177 176 178 183 192 209 219 234 265 286 301 309 314 322 325 323 315
298 281 195 223 216 233 81 84 128 105 39 89 107 121 131 143 155 166 186 190 192 192 266 227 220 195 193 38 22 50 82 134 161 153 157 162 168 170 170 173 190 206 215 236 265 284 293 301 316 325 326 328 327 324
249 238 244 227 196 181 108 57 80 92 94 107 107 114 130 151 103 108 142 169 156 168 220 222 28 34 36 70 68 86 77 134 152 140 150 162 169 174 176 186 200 212 221 229 228 223 268 312 332 337 334 330 332 332
209 231 243 180 149 96 86 71 61 82 96 97 101 78 43 78 86 71 68 113 114 50 63 51 66 76 84 85 108 125 132 141 148 158 171 180 184 191 191 191 195 207 206 189 175 173 303 319 322 324 326 329 333 333
184 177 145 150 94 79 79 60 91 82 74 77 65 70 39 26 30 16 12 52 58 44 44 71 116 129 128 120 118 126 134 142 149 131 136 151 181 186 183 181 178 171 164 169 227 276 285 291 302 308 312 320 325 330
135 135 88 73 87 57 42 63 73 51 87 295 90 74 15 37 6 15 78 58 49 12 352 60 147 152 141 137 129 129 125 116 110 97 94 118 140 138 137 142 148 160 190 242 268 280 285 291 297 304 315 325 331 335
98 65 43 48 41 65 55 41 55 79 82 36 60 82 33 351 356 19 58 39 5 5 42 118 135 118 119 118 113 120 124 119 116 120 120 124 122 119 122 130 159 236 269 274 281 283 279 281 290 304 314 321 326 332
86 13 22 20 23 22 44 29 9 53 59 352 25 91 18 355 59 48 49 354 359 4 29 108 112 94 111 120 122 125 124 114 119 121 121 123 113 107 105 76 314 300 291 282 271 269 267 283 298 307 315 322 327 330
68 9 42 341 0 60 342 50 33 28 358 83 46 352 356 25 62 9 324 345 355 8 52 79 72 83 102 113 118 120 114 114 106 99 91 87 72 346 311 310 303 304 303 295 269 263 275 291 302 309 316 318 320 321
57 344 9 28 19 358 39 32 8 358 42 34 8 360 23 67 30 282 355 8 6 10 79 110 106 101 105 106 105 103 98 91 76 71 63 52 26 337 316 307 304 299 292 283 269 268 280 292 301 307 309 311 313 314
76 27 47 339 16 34 111 37 47 51 352 352 332 35 90 83 251 345 354 1 4 24 109 133 124 124 125 116 106 97 93 96 82 62 63 62 48 31 10 338 303 298 294 291 292 293 297 300 304 306 307 307 310 310
36 357 352 352 28 53 45 67 133 26 359 11 90 53 18 55 6 357 352 2 22 63 118 141 122 117 125 121 107 102 95 82 55 45 43 49 41 36 31 359 332 316 306 301 298 300 301 301 303 303 303 304 305 304
2 358 353 2 36 38 359 15 336 334 2 28 68 86 80 77 49 37 26 20 30 66 106 129 145 137 116 98 67 56 53 41 27 29 38 31 6 347 327 317 312 308 305 304 303 300 297 296 295 294 295 296 297 298
350 354 356 11 71 18 356 354 24 63 82 69 75 101 114 118 59 31 24 22 28 59 89 111 93 90 14 74 61 44 66 65 39 43 26 358 341 330 321 314 309 305 303 300 299 298 297 297 297 297 298 300 301 300
348 6 351 356 354 7 17 12 26 58 63 66 48 64 77 78 64 18 11 19 31 55 64 62 53 34 15 331 307 336 93 99 360 335 327 322 321 321 320 316 312 308 303 299 296 295 294 294 295 296 298 299 300 301
337 353 352 328 331 18 357 353 27 78 60 60 43 49 54 68 80 17 21 43 53 59 63 67 64 52 42 40 55 24 317 311 307 310 312 312 312 312 311 310 307 304 302 300 297 296 294 293 293 293 294 294 296 296